#timestamp,LO_Frequency,Hit,StdDev 
1691265615.8,286046998.3,N
1691265635.6,286047001.1,N
1691265655.5,286046999.8,N
1691265675.3,286046999.8,N
1691265695.1,286046999.9,N
1691265715.9,286047000.7,N
1691265735.7,286047000.3,N
1691265755.5,286047000.2,N
1691265775.4,286047000.4,N
1691265795.2,286047000.3,N
1691265815.1,286047000.0,N
1691265816.0,286047000.0,N
1691265835.8,286046998.1,N
1691265855.6,286047000.4,N
1691265875.5,286047000.0,N
1691265895.3,286047000.9,N
1691265915.1,286046998.3,N
1691265935.9,286046999.1,N
1691265955.7,286046999.2,N
1691265975.6,286046998.8,N
1691265995.4,286046998.5,N
1691266015.2,286047000.9,N
1691266035.1,286047000.6,N
1691266036.0,286047000.6,N
1691266055.8,286047000.5,N
1691266075.6,286046999.9,N
1691266095.5,286047000.2,N
1691266115.3,286046999.7,N
1691266135.2,286047000.6,N
1691266155.9,286047001.0,N
1691266175.7,286047000.9,N
1691266195.6,286047000.0,N
1691266215.4,286047001.2,N
1691266235.2,286046998.5,N
1691266255.1,286046998.6,N
1691266256.0,286046998.6,N
1691266275.8,286047001.1,N
1691266295.7,286046998.9,N
1691266315.5,286046998.7,N
1691266335.3,286046998.6,N
1691266355.2,286047001.1,N
1691266375.0,286047001.2,N
1691266375.9,286047001.2,N
1691266395.7,286046998.5,N
1691266415.6,286046999.4,N
1691266435.4,286047001.1,N
1691266455.3,286047001.1,N
1691266475.1,286046998.6,N
1691266476.0,286046998.6,N
1691266495.8,286047002.3,N
1691266515.7,286047000.0,N
1691266535.5,286046998.2,N
1691266555.4,286046998.1,N
1691266575.2,286046998.4,N
1691266595.0,286047001.1,N
1691266595.9,286047001.1,N
1691266615.8,286046998.4,N
1691266635.6,286046998.9,N
1691266655.4,286046998.3,N
1691266675.3,286046998.8,N
1691266695.1,286046999.1,N
1691266715.9,286046998.7,N
1691266735.7,286046998.9,N
1691266755.5,286046999.0,N
1691266775.4,286046996.9,N
1691266795.2,286046996.5,N
1691266815.0,286046996.6,N
1691266816.0,286046996.6,N
1691266835.8,286046997.5,N
1691266855.6,286046997.7,N
1691266875.5,286046996.9,N
1691266895.3,286046999.6,N
1691266915.1,286046999.1,N
1691266935.9,286046999.4,N
1691266955.7,286046998.5,N
1691266975.6,286046999.4,N
1691266995.4,286046998.6,N
1691267015.2,286046998.8,N
1691267035.1,286046998.6,N
1691267036.0,286046998.6,N
1691267055.8,286046999.1,N
1691267075.7,286046999.5,N
1691267095.5,286046999.1,N
1691267115.3,286046999.2,N
1691267135.2,286046998.2,N
1691267155.9,286046998.3,N
1691267175.7,286047000.3,N
1691267195.6,286047000.6,N
1691267215.4,286047001.0,N
1691267235.3,286047001.2,N
1691267255.1,286046998.2,N
1691267256.0,286046998.2,N
1691267275.8,286046999.4,N
1691267295.7,286046999.0,N
1691267315.5,286046998.9,N
1691267335.3,286047001.2,N
1691267355.2,286047001.2,N
1691267375.0,286047000.7,N
1691267375.9,286047000.7,N
1691267395.8,286046998.5,N
1691267415.6,286047000.7,N
1691267435.4,286047000.8,N
1691267455.3,286047000.5,N
1691267475.1,286047001.2,N
1691267495.8,286047000.1,N
1691267515.7,286047000.8,N
1691267535.5,286047000.3,N
1691267555.4,286047000.6,N
1691267575.2,286047000.5,N
1691267595.0,286047000.1,N
1691267595.9,286047000.1,N
1691267615.8,286047000.2,N
1691267635.6,286046999.8,N
1691267655.4,286046999.9,N
1691267675.3,286047000.1,N
1691267695.1,286047002.5,N
1691267715.9,286047002.4,N
1691267735.7,286047002.4,N
1691267755.5,286047002.8,N
1691267775.4,286047002.5,N
1691267795.2,286046999.8,N
1691267815.0,286047002.8,N
1691267815.9,286047002.8,N
1691267835.8,286047002.8,N
1691267855.6,286047002.5,N
1691267875.5,286047001.9,N
1691267895.3,286047001.7,N
1691267915.1,286047001.7,N
1691267935.9,286047001.3,N
1691267955.7,286047001.7,N
1691267975.5,286047001.5,N
1691267995.4,286047003.9,Y
1691268015.2,286047002.0,P
1691268035.1,286047002.6,P
1691268036.0,286047002.6,P
1691268055.8,286047002.7,Y
1691268075.6,286046998.6,P
1691268095.5,286046998.2,N
1691268115.3,286046999.9,N
1691268135.2,286047001.0,N
1691268155.9,286046999.7,N
1691268175.7,286047000.9,N
1691268195.6,286046999.7,N
1691268215.4,286047002.3,N
1691268235.2,286047002.3,N
1691268255.1,286047002.3,N
1691268256.0,286047002.3,N
1691268275.8,286047002.1,N
1691268295.7,286047002.0,N
1691268315.5,286047002.5,N
1691268335.3,286047001.8,N
1691268355.2,286047002.7,N
1691268375.0,286047002.2,N
1691268375.9,286047002.2,N
1691268395.7,286046999.9,N
1691268415.6,286047000.0,N
1691268435.4,286047001.1,N
1691268455.3,286047000.1,N
1691268475.1,286047000.9,N
1691268476.0,286047000.9,N
1691268495.8,286046999.8,N
1691268515.7,286046999.7,N
1691268535.5,286047002.5,N
1691268555.3,286047002.3,N
1691268575.2,286047002.3,N
1691268595.0,286047002.6,N
1691268595.9,286047002.6,N
1691268615.8,286047002.4,N
1691268635.6,286047001.6,N
1691268655.4,286047002.5,N
1691268675.3,286047002.6,N
1691268695.1,286047001.8,N
1691268715.9,286047002.3,N
1691268735.7,286047002.0,N
1691268755.5,286046999.8,N
1691268775.4,286047002.8,N
1691268795.2,286047002.7,N
1691268815.0,286047001.9,N
1691268815.9,286047001.9,N
1691268835.8,286046999.8,N
1691268855.6,286047002.0,N
1691268875.5,286047002.3,N
1691268895.3,286047002.0,N
1691268915.1,286046999.7,N
1691268935.9,286047002.2,N
1691268955.7,286047002.7,N
1691268975.6,286047002.7,N
1691268995.4,286047001.6,N
1691269015.2,286047002.0,N
1691269035.1,286047001.6,N
1691269036.0,286047001.6,N
1691269055.8,286047001.7,N
1691269075.6,286047002.2,N
1691269095.5,286047004.4,Y
1691269115.3,286047002.8,P
1691269135.2,286046999.8,N
1691269155.0,286047000.2,N
1691269155.9,286047000.2,N
1691269175.8,286046999.9,N
1691269195.6,286047000.1,N
